TimeEST,TemperatureF,Dew PointF,Humidity,Sea Level PressureIn,VisibilityMPH,Wind Direction,Wind SpeedMPH,Gust SpeedMPH,PrecipitationIn,Events,Conditions,WindDirDegrees,DateUTC
12:52 AM,42.1,28.0,58,29.90,10.0,West,17.3,27.6,N/A,,Mostly Cloudy,280,2013-11-11 05:52:00
1:52 AM,42.1,25.0,51,29.93,10.0,WNW,19.6,28.8,N/A,,Partly Cloudy,290,2013-11-11 06:52:00
2:52 AM,41.0,25.0,53,29.95,10.0,WNW,17.3,28.8,N/A,,Clear,300,2013-11-11 07:52:00
3:52 AM,41.0,25.0,53,29.97,10.0,WNW,17.3,28.8,N/A,,Clear,300,2013-11-11 08:52:00
4:52 AM,39.9,25.0,55,30.02,10.0,WNW,13.8,-,N/A,,Scattered Clouds,300,2013-11-11 09:52:00
5:52 AM,39.9,23.0,51,30.04,10.0,NW,9.2,18.4,N/A,,Partly Cloudy,310,2013-11-11 10:52:00
6:52 AM,39.0,24.1,55,30.06,10.0,WNW,5.8,-,N/A,,Clear,300,2013-11-11 11:52:00
7:52 AM,41.0,25.0,53,30.09,10.0,West,6.9,-,N/A,,Clear,280,2013-11-11 12:52:00
8:52 AM,43.0,25.0,49,30.10,10.0,WNW,13.8,-,N/A,,Clear,290,2013-11-11 13:52:00
9:52 AM,45.0,24.1,44,30.12,10.0,WNW,9.2,-,N/A,,Clear,290,2013-11-11 14:52:00
10:52 AM,48.0,24.1,39,30.09,10.0,Variable,5.8,-,N/A,,Clear,0,2013-11-11 15:52:00
11:52 AM,50.0,23.0,35,30.06,10.0,Variable,5.8,-,N/A,,Clear,0,2013-11-11 16:52:00
12:52 PM,52.0,19.9,28,30.02,10.0,North,-9999.0,-,N/A,,Clear,0,2013-11-11 17:52:00
1:52 PM,53.1,21.9,30,30.00,10.0,West,10.4,-,N/A,,Clear,280,2013-11-11 18:52:00
2:52 PM,50.0,21.9,33,29.99,10.0,WSW,9.2,19.6,N/A,,Overcast,250,2013-11-11 19:52:00
3:52 PM,48.9,24.1,38,29.99,10.0,SSW,6.9,-,N/A,,Overcast,210,2013-11-11 20:52:00
4:52 PM,46.9,25.0,42,29.99,10.0,Variable,3.5,-,N/A,,Partly Cloudy,0,2013-11-11 21:52:00
5:52 PM,46.9,26.1,44,29.98,10.0,SSE,3.5,-,N/A,,Mostly Cloudy,150,2013-11-11 22:52:00
6:52 PM,46.0,26.1,46,29.97,10.0,South,5.8,-,N/A,,Overcast,180,2013-11-11 23:52:00
7:52 PM,46.0,25.0,44,29.96,10.0,SSE,6.9,-,N/A,,Overcast,160,2013-11-12 00:52:00
8:52 PM,46.9,26.1,44,29.94,10.0,SW,6.9,-,N/A,,Mostly Cloudy,230,2013-11-12 01:52:00
9:52 PM,48.0,26.1,42,29.92,10.0,SW,5.8,-,N/A,,Scattered Clouds,220,2013-11-12 02:52:00
10:52 PM,48.0,27.0,44,29.91,10.0,SSW,11.5,-,N/A,,Mostly Cloudy,200,2013-11-12 03:52:00
11:52 PM,48.9,27.0,43,29.90,10.0,SW,6.9,-,N/A,,Mostly Cloudy,230,2013-11-12 04:52:00